Time,TemperatureF,DewpointF,PressureIn,WindDirection,WindDirectionDegrees,WindSpeedMPH,WindSpeedGustMPH,Humidity,HourlyPrecipIn,Conditions,Clouds,dailyrainin,SolarRadiationWatts/m^2,SoftwareType,DateUTC
2013-05-26 00:00:00,34.4,33.0,29.78,NW,315,0.0,15.0,94,0.02,,,0.51,0,weatherlink.com 1.10,2013-05-26 04:00:00,
2013-05-26 00:15:00,34.2,33.0,29.77,North,350,9.0,20.0,94,0.02,,,0.01,0,weatherlink.com 1.10,2013-05-26 04:15:00,
2013-05-26 00:30:00,33.8,32.0,29.77,NW,315,9.0,22.0,94,0.03,,,0.02,0,weatherlink.com 1.10,2013-05-26 04:30:00,
2013-05-26 00:45:00,33.3,32.0,29.77,WNW,302,11.0,18.0,94,0.03,,,0.03,0,weatherlink.com 1.10,2013-05-26 04:45:00,
2013-05-26 01:00:00,33.5,32.0,29.77,West,273,2.0,14.0,94,0.03,,,0.03,0,weatherlink.com 1.10,2013-05-26 05:00:00,
2013-05-26 01:15:00,33.7,32.0,29.77,NE,43,6.0,20.0,94,0.03,,,0.04,0,weatherlink.com 1.10,2013-05-26 05:15:00,
2013-05-26 01:30:00,33.8,32.0,29.77,NW,312,6.0,18.0,94,0.02,,,0.04,0,weatherlink.com 1.10,2013-05-26 05:30:00,
2013-05-26 01:45:00,33.8,32.0,29.76,NW,321,8.0,20.0,94,0.01,,,0.04,0,weatherlink.com 1.10,2013-05-26 05:45:00,
2013-05-26 02:00:00,34.0,33.0,29.76,WNW,303,9.0,14.0,94,0.01,,,0.04,0,weatherlink.com 1.10,2013-05-26 06:00:00,
2013-05-26 02:15:00,34.2,33.0,29.77,NNW,348,7.0,15.0,95,0.00,,,0.04,0,weatherlink.com 1.10,2013-05-26 06:15:00,
2013-05-26 02:30:00,34.4,33.0,29.76,SW,217,6.0,22.0,94,0.00,,,0.04,0,weatherlink.com 1.10,2013-05-26 06:30:00,
2013-05-26 02:45:00,34.4,33.0,29.76,NW,308,1.0,21.0,94,0.00,,,0.04,0,weatherlink.com 1.10,2013-05-26 06:45:00,
2013-05-26 03:00:00,34.4,33.0,29.76,North,355,4.0,20.0,94,0.01,,,0.05,0,weatherlink.com 1.10,2013-05-26 07:00:00,
2013-05-26 03:15:00,34.4,33.0,29.76,NW,313,0.0,20.0,94,0.01,,,0.05,0,weatherlink.com 1.10,2013-05-26 07:15:00,
2013-05-26 03:30:00,34.4,33.0,29.75,WNW,292,9.0,28.0,94,0.01,,,0.05,0,weatherlink.com 1.10,2013-05-26 07:30:00,
2013-05-26 03:45:00,34.7,33.0,29.75,WNW,297,5.0,23.0,94,0.01,,,0.05,0,weatherlink.com 1.10,2013-05-26 07:45:00,
2013-05-26 04:00:00,34.6,33.0,29.75,NW,305,5.0,22.0,94,0.00,,,0.05,0,weatherlink.com 1.10,2013-05-26 08:00:00,
2013-05-26 04:15:00,34.6,33.0,29.75,NNW,335,8.0,21.0,94,0.00,,,0.05,0,weatherlink.com 1.10,2013-05-26 08:15:00,
2013-05-26 04:30:00,34.7,33.0,29.75,NW,310,15.0,25.0,94,0.00,,,0.05,0,weatherlink.com 1.10,2013-05-26 08:30:00,
2013-05-26 04:45:00,34.7,33.0,29.76,NNW,336,11.0,21.0,94,0.00,,,0.05,0,weatherlink.com 1.10,2013-05-26 08:45:00,
2013-05-26 05:00:00,34.6,33.0,29.76,NW,321,11.0,25.0,94,0.00,,,0.05,0,weatherlink.com 1.10,2013-05-26 09:00:00,
2013-05-26 05:15:00,34.9,33.0,29.76,NNW,330,2.0,23.0,94,0.01,,,0.06,0,weatherlink.com 1.10,2013-05-26 09:15:00,
2013-05-26 05:30:00,35.1,34.0,29.76,WNW,300,13.0,20.0,94,0.01,,,0.06,7,weatherlink.com 1.10,2013-05-26 09:30:00,
2013-05-26 05:45:00,35.2,34.0,29.76,NNW,328,11.0,27.0,94,0.01,,,0.06,18,weatherlink.com 1.10,2013-05-26 09:45:00,
2013-05-26 06:00:00,35.2,34.0,29.76,WNW,300,5.0,35.0,94,0.01,,,0.06,30,weatherlink.com 1.10,2013-05-26 10:00:00,
2013-05-26 06:16:00,35.4,34.0,29.77,NNW,328,6.0,23.0,94,0.00,,,0.06,56,weatherlink.com 1.10,2013-05-26 10:16:00,
2013-05-26 06:31:00,35.7,34.0,29.78,West,281,4.0,27.0,94,0.01,,,0.07,81,weatherlink.com 1.10,2013-05-26 10:31:00,
2013-05-26 06:46:00,35.7,34.0,29.79,NW,316,13.0,24.0,94,0.01,,,0.07,123,weatherlink.com 1.10,2013-05-26 10:46:00,
2013-05-26 07:01:00,36.5,35.0,29.79,NW,310,8.0,19.0,94,0.01,,,0.07,132,weatherlink.com 1.10,2013-05-26 11:01:00,
2013-05-26 07:16:00,36.9,35.0,29.79,North,355,10.0,21.0,93,0.01,,,0.07,104,weatherlink.com 1.10,2013-05-26 11:16:00,
2013-05-26 07:31:00,37.5,36.0,29.80,NW,317,8.0,24.0,93,0.00,,,0.07,109,weatherlink.com 1.10,2013-05-26 11:31:00,
2013-05-26 07:46:00,36.8,35.0,29.81,NW,315,5.0,24.0,92,0.00,,,0.07,137,weatherlink.com 1.10,2013-05-26 11:46:00,
2013-05-26 08:01:00,36.5,34.0,29.82,North,360,8.0,20.0,92,0.00,,,0.07,176,weatherlink.com 1.10,2013-05-26 12:01:00,
2013-05-26 08:17:00,36.9,35.0,29.82,North,360,3.0,26.0,92,0.00,,,0.07,193,weatherlink.com 1.10,2013-05-26 12:17:00,
2013-05-26 08:32:00,38.0,36.0,29.82,WNW,289,0.0,23.0,93,0.00,,,0.07,209,weatherlink.com 1.10,2013-05-26 12:32:00,
2013-05-26 08:47:00,38.4,36.0,29.82,NW,315,5.0,22.0,92,0.00,,,0.07,450,weatherlink.com 1.10,2013-05-26 12:47:00,
2013-05-26 09:02:00,40.0,38.0,29.83,NW,321,2.0,18.0,92,0.00,,,0.07,443,weatherlink.com 1.10,2013-05-26 13:02:00,
2013-05-26 09:18:00,38.4,36.0,29.84,East,96,5.0,21.0,91,0.00,,,0.07,155,weatherlink.com 1.10,2013-05-26 13:18:00,
2013-05-26 09:32:00,37.5,35.0,29.85,NNW,344,22.0,22.0,92,0.01,,,0.08,174,weatherlink.com 1.10,2013-05-26 13:32:00,
2013-05-26 09:48:00,38.0,36.0,29.85,NW,321,4.0,14.0,92,0.01,,,0.08,276,weatherlink.com 1.10,2013-05-26 13:48:00,
2013-05-26 10:03:00,39.5,37.0,29.86,NW,317,10.0,12.0,92,0.01,,,0.08,631,weatherlink.com 1.10,2013-05-26 14:03:00,
2013-05-26 10:18:00,40.3,37.0,29.86,NNW,346,0.0,16.0,88,0.01,,,0.08,431,weatherlink.com 1.10,2013-05-26 14:18:00,
2013-05-26 10:33:00,39.5,37.0,29.86,NW,311,4.0,16.0,89,0.00,,,0.08,264,weatherlink.com 1.10,2013-05-26 14:33:00,
2013-05-26 10:48:00,39.2,37.0,29.86,WNW,298,5.0,20.0,90,0.00,,,0.08,209,weatherlink.com 1.10,2013-05-26 14:48:00,
2013-05-26 11:03:00,39.6,37.0,29.87,NW,308,4.0,23.0,90,0.00,,,0.08,262,weatherlink.com 1.10,2013-05-26 15:03:00,
2013-05-26 11:19:00,39.4,37.0,29.88,NNW,335,7.0,16.0,91,0.01,,,0.09,330,weatherlink.com 1.10,2013-05-26 15:19:00,
2013-05-26 11:33:00,40.2,38.0,29.88,NW,325,1.0,14.0,93,0.02,,,0.10,496,weatherlink.com 1.10,2013-05-26 15:33:00,
2013-05-26 11:49:00,41.5,39.0,29.89,NNW,330,19.0,19.0,89,0.02,,,0.10,594,weatherlink.com 1.10,2013-05-26 15:49:00,
2013-05-26 12:04:00,41.6,38.0,29.90,NNW,328,5.0,11.0,87,0.02,,,0.10,272,weatherlink.com 1.10,2013-05-26 16:04:00,
2013-05-26 12:19:00,40.4,38.0,29.91,NW,321,7.0,19.0,89,0.01,,,0.10,272,weatherlink.com 1.10,2013-05-26 16:19:00,
2013-05-26 12:34:00,41.2,39.0,29.91,NW,305,7.0,14.0,90,0.00,,,0.10,457,weatherlink.com 1.10,2013-05-26 16:34:00,
2013-05-26 12:49:00,42.5,39.0,29.91,NNW,347,0.0,9.0,87,0.00,,,0.10,466,weatherlink.com 1.10,2013-05-26 16:49:00,
2013-05-26 13:05:00,42.7,39.0,29.91,North,360,9.0,9.0,88,0.00,,,0.10,499,weatherlink.com 1.10,2013-05-26 17:05:00,
2013-05-26 13:21:00,43.4,39.0,29.91,NW,319,0.0,11.0,83,0.00,,,0.10,450,weatherlink.com 1.10,2013-05-26 17:21:00,
2013-05-26 13:35:00,44.4,38.0,29.91,WNW,302,7.0,16.0,79,0.00,,,0.10,457,weatherlink.com 1.10,2013-05-26 17:35:00,
2013-05-26 13:51:00,44.6,39.0,29.92,NW,306,0.0,10.0,80,0.00,,,0.10,360,weatherlink.com 1.10,2013-05-26 17:51:00,
2013-05-26 14:06:00,43.8,40.0,29.93,West,265,1.0,15.0,86,0.00,,,0.10,218,weatherlink.com 1.10,2013-05-26 18:06:00,
2013-05-26 14:21:00,42.3,39.0,29.93,NNW,340,5.0,9.0,89,0.00,,,0.10,199,weatherlink.com 1.10,2013-05-26 18:21:00,
2013-05-26 14:35:00,42.6,40.0,29.95,NNW,342,2.0,20.0,89,0.00,,,0.10,773,weatherlink.com 1.10,2013-05-26 18:35:00,
2013-05-26 14:51:00,43.3,39.0,29.95,WNW,302,8.0,16.0,86,0.00,,,0.10,703,weatherlink.com 1.10,2013-05-26 18:51:00,
2013-05-26 15:06:00,42.8,39.0,29.96,NW,315,7.0,16.0,86,0.00,,,0.10,390,weatherlink.com 1.10,2013-05-26 19:06:00,
2013-05-26 15:21:00,43.3,40.0,29.96,WNW,286,3.0,16.0,89,0.00,,,0.10,788,weatherlink.com 1.10,2013-05-26 19:21:00,
2013-05-26 15:36:00,45.4,40.0,29.96,NW,318,9.0,22.0,80,0.00,,,0.10,986,weatherlink.com 1.10,2013-05-26 19:36:00,
2013-05-26 15:51:00,46.7,40.0,29.97,WNW,301,8.0,18.0,76,0.00,,,0.10,928,weatherlink.com 1.10,2013-05-26 19:51:00,
2013-05-26 16:06:00,45.5,40.0,29.97,NW,308,5.0,12.0,82,0.00,,,0.10,529,weatherlink.com 1.10,2013-05-26 20:06:00,
2013-05-26 16:22:00,43.9,40.0,29.98,NNW,328,13.0,14.0,85,0.00,,,0.10,200,weatherlink.com 1.10,2013-05-26 20:22:00,
2013-05-26 16:37:00,43.6,39.0,29.99,NW,314,6.0,14.0,83,0.00,,,0.10,251,weatherlink.com 1.10,2013-05-26 20:37:00,
2013-05-26 16:52:00,44.0,40.0,29.99,NW,317,7.0,21.0,84,0.00,,,0.10,352,weatherlink.com 1.10,2013-05-26 20:52:00,
2013-05-26 17:08:00,43.2,39.0,29.99,WSW,249,1.0,19.0,86,0.00,,,0.10,315,weatherlink.com 1.10,2013-05-26 21:08:00,
2013-05-26 17:22:00,43.1,39.0,30.00,NW,326,10.0,16.0,86,0.00,,,0.10,202,weatherlink.com 1.10,2013-05-26 21:22:00,
2013-05-26 17:37:00,42.5,39.0,30.01,WNW,302,4.0,21.0,86,0.00,,,0.10,185,weatherlink.com 1.10,2013-05-26 21:37:00,
2013-05-26 17:53:00,42.1,39.0,30.02,NW,321,3.0,18.0,89,0.00,,,0.10,135,weatherlink.com 1.10,2013-05-26 21:53:00,
2013-05-26 18:08:00,41.2,38.0,30.02,NW,315,6.0,14.0,89,0.00,,,0.10,62,weatherlink.com 1.10,2013-05-26 22:08:00,
2013-05-26 18:23:00,41.0,38.0,30.02,North,355,4.0,13.0,90,0.00,,,0.10,44,weatherlink.com 1.10,2013-05-26 22:23:00,
2013-05-26 18:38:00,40.6,38.0,30.03,NNW,333,1.0,20.0,91,0.02,,,0.12,49,weatherlink.com 1.10,2013-05-26 22:38:00,
2013-05-26 18:53:00,40.5,38.0,30.04,NW,326,9.0,15.0,92,0.02,,,0.12,51,weatherlink.com 1.10,2013-05-26 22:53:00,
2013-05-26 19:08:00,40.5,38.0,30.05,NW,324,6.0,16.0,92,0.02,,,0.12,39,weatherlink.com 1.10,2013-05-26 23:08:00,
2013-05-26 19:24:00,40.1,38.0,30.05,NNW,330,1.0,16.0,92,0.02,,,0.12,21,weatherlink.com 1.10,2013-05-26 23:24:00,
2013-05-26 19:39:00,39.7,38.0,30.05,NW,306,2.0,16.0,93,0.00,,,0.12,18,weatherlink.com 1.10,2013-05-26 23:39:00,
2013-05-26 19:54:00,39.3,37.0,30.05,West,273,5.0,12.0,92,0.00,,,0.12,11,weatherlink.com 1.10,2013-05-26 23:54:00,
2013-05-26 20:10:00,38.9,37.0,30.05,NW,309,2.0,11.0,92,0.00,,,0.12,5,weatherlink.com 1.10,2013-05-27 00:10:00,
2013-05-26 20:25:00,38.4,36.0,30.06,West,268,0.0,8.0,91,0.00,,,0.12,0,weatherlink.com 1.10,2013-05-27 00:25:00,
2013-05-26 20:40:00,38.3,36.0,30.05,WNW,295,2.0,9.0,92,0.00,,,0.12,0,weatherlink.com 1.10,2013-05-27 00:40:00,
2013-05-26 20:55:00,38.3,36.0,30.05,NW,317,4.0,12.0,92,0.00,,,0.12,0,weatherlink.com 1.10,2013-05-27 00:55:00,
2013-05-26 21:10:00,39.2,36.0,30.05,WNW,289,1.0,11.0,89,0.00,,,0.12,0,weatherlink.com 1.10,2013-05-27 01:10:00,
2013-05-26 21:25:00,39.4,37.0,30.06,NW,312,7.0,11.0,89,0.00,,,0.12,0,weatherlink.com 1.10,2013-05-27 01:25:00,
2013-05-26 21:40:00,40.9,37.0,30.06,NW,306,2.0,14.0,86,0.00,,,0.12,0,weatherlink.com 1.10,2013-05-27 01:40:00,
2013-05-26 21:55:00,41.5,37.0,30.06,NW,326,1.0,9.0,85,0.00,,,0.12,0,weatherlink.com 1.10,2013-05-27 01:55:00,
2013-05-26 22:10:00,41.3,37.0,30.06,WNW,290,0.0,8.0,85,0.00,,,0.12,0,weatherlink.com 1.10,2013-05-27 02:10:00,
2013-05-26 22:25:00,41.8,37.0,30.06,NW,323,2.0,8.0,84,0.00,,,0.12,0,weatherlink.com 1.10,2013-05-27 02:25:00,
2013-05-26 22:40:00,42.3,37.0,30.07,West,277,0.0,14.0,82,0.00,,,0.12,0,weatherlink.com 1.10,2013-05-27 02:40:00,
2013-05-26 22:55:00,42.1,36.0,30.07,NW,309,1.0,10.0,80,0.00,,,0.12,0,weatherlink.com 1.10,2013-05-27 02:55:00,
2013-05-26 23:10:00,41.9,37.0,30.07,West,281,0.0,7.0,82,0.00,,,0.12,0,weatherlink.com 1.10,2013-05-27 03:10:00,
2013-05-26 23:25:00,41.5,37.0,30.07,West,280,0.0,6.0,83,0.00,,,0.12,0,weatherlink.com 1.10,2013-05-27 03:25:00,
2013-05-26 23:40:00,41.7,37.0,30.07,SW,232,0.0,8.0,83,0.00,,,0.12,0,weatherlink.com 1.10,2013-05-27 03:40:00,
2013-05-26 23:55:00,41.6,37.0,30.07,WNW,303,0.0,6.0,82,0.00,,,0.12,0,weatherlink.com 1.10,2013-05-27 03:55:00,